THY5JB LHBP-EDDH

Flight info

Callsign THY5JB
Flight time N/A
Altitude 40000
Route BADOV DCT MAVOR DCT KATQA DCT HDO M748 RENDO DCT BOLBO M748 ESIKA DCT SOGMA M748 RARUP RARUP3P
Aircraft B77W/H-SDE1E2E3FGHIJ2J3J4J5M1RWXY/LB1D1

Departure

Time 2026-05-04 21:20
Airport Budapest Liszt Ferenc International Airport (LHBP)

Arrival

Time N/A
Airport Hamburg Helmut Schmidt Airport (EDDH)
Time Latitude Longitude Altitude Speed Heading
2026-05-04 20:50 47.43619 19.25923 483 ft 0 kts 290°
2026-05-04 20:52 47.43581 19.25864 479 ft 0 kts 318°
2026-05-04 21:11 47.43572 19.25876 479 ft 4 kts 328°
2026-05-04 21:11 47.43553 19.25888 479 ft 4 kts
2026-05-04 21:11 47.43534 19.25879 477 ft 4 kts 37°
2026-05-04 21:11 47.43515 19.25855 477 ft 2 kts 44°
2026-05-04 21:12 47.43514 19.25854 477 ft 0 kts 44°
2026-05-04 21:16 47.43532 19.25881 477 ft 12 kts 45°
2026-05-04 21:16 47.43633 19.26016 480 ft 16 kts 31°
2026-05-04 21:16 47.43702 19.26017 480 ft 8 kts 318°
2026-05-04 21:16 47.43775 19.25978 484 ft 14 kts 14°
2026-05-04 21:17 47.43880 19.26110 486 ft 20 kts 37°
2026-05-04 21:17 47.43959 19.26130 490 ft 10 kts 329°
2026-05-04 21:17 47.44043 19.25992 499 ft 23 kts 314°
2026-05-04 21:17 47.44173 19.25796 501 ft 26 kts 313°
2026-05-04 21:18 47.44284 19.25613 504 ft 19 kts 315°
2026-05-04 21:18 47.44423 19.25564 509 ft 23 kts 18°
2026-05-04 21:18 47.44458 19.25596 510 ft 0 kts 42°
2026-05-04 21:19 47.44470 19.25614 511 ft 9 kts 45°
2026-05-04 21:19 47.44508 19.25756 507 ft 14 kts 89°
2026-05-04 21:19 47.44431 19.25937 505 ft 41 kts 133°
2026-05-04 21:19 47.44027 19.26591 487 ft 130 kts 132°
2026-05-04 21:20 47.43267 19.27813 578 ft 188 kts 132°
2026-05-04 21:20 47.42358 19.29297 1374 ft 186 kts 131°
2026-05-04 21:20 47.41666 19.30895 2422 ft 187 kts 124°
2026-05-04 21:20 47.41005 19.32638 2957 ft 208 kts 123°
2026-05-04 21:21 47.40240 19.34658 3242 ft 243 kts 122°
2026-05-04 21:21 47.39376 19.36938 3864 ft 261 kts 122°
2026-05-04 21:21 47.38522 19.39343 4778 ft 267 kts 113°
2026-05-04 21:21 47.38302 19.42104 5614 ft 279 kts 83°
2026-05-04 21:22 47.38986 19.44791 6650 ft 283 kts 57°
2026-05-04 21:22 47.40299 19.46948 7532 ft 286 kts 43°
2026-05-04 21:22 47.41795 19.48956 8356 ft 294 kts 42°
2026-05-04 21:22 47.43326 19.50975 9338 ft 296 kts 42°
2026-05-04 21:23 47.44876 19.53023 10240 ft 301 kts 43°
2026-05-04 21:23 47.46473 19.55149 10750 ft 322 kts 43°
2026-05-04 21:23 47.48218 19.57490 10997 ft 353 kts 43°
2026-05-04 21:23 47.50094 19.60019 11508 ft 373 kts 43°
2026-05-04 21:24 47.51999 19.62598 12486 ft 380 kts 43°
2026-05-04 21:24 47.53328 19.64393 13276 ft 381 kts 42°
2026-05-04 21:24 47.56416 19.66957 14491 ft 391 kts 14°
2026-05-04 21:24 47.58221 19.67304 15203 ft 393 kts 359°
2026-05-04 21:25 47.61750 19.66119 16717 ft 394 kts 334°
2026-05-04 21:25 47.63311 19.64722 17421 ft 396 kts 321°
2026-05-04 21:25 47.65269 19.61851 18321 ft 400 kts 312°
2026-05-04 21:25 47.67155 19.58737 19106 ft 408 kts 311°
2026-05-04 21:26 47.69049 19.55571 20010 ft 412 kts 311°
2026-05-04 21:26 47.70965 19.52395 20973 ft 415 kts 311°
2026-05-04 21:26 47.72914 19.49204 21886 ft 419 kts 312°
2026-05-04 21:26 47.74897 19.45987 22736 ft 424 kts 312°
2026-05-04 21:27 47.76908 19.42737 23573 ft 430 kts 312°
2026-05-04 21:27 47.78937 19.39454 24275 ft 434 kts 312°
2026-05-04 21:27 47.80995 19.36122 24990 ft 437 kts 312°
2026-05-04 21:27 47.83057 19.32777 25743 ft 440 kts 312°
2026-05-04 21:28 47.85135 19.29401 26441 ft 443 kts 312°
2026-05-04 21:28 47.87197 19.26046 27079 ft 447 kts 312°
2026-05-04 21:28 47.89303 19.22617 27720 ft 451 kts 312°
2026-05-04 21:28 47.91433 19.19144 28355 ft 455 kts 312°
2026-05-04 21:29 47.93606 19.15595 28989 ft 458 kts 312°
2026-05-04 21:29 47.95707 19.12089 29562 ft 461 kts 309°
2026-05-04 21:29 47.97380 19.07995 30029 ft 466 kts 292°
2026-05-04 21:29 47.98279 19.03338 30437 ft 468 kts 284°
2026-05-04 21:30 47.99040 18.98603 30818 ft 472 kts 284°
2026-05-04 21:30 47.99852 18.93847 31293 ft 473 kts 285°
2026-05-04 21:30 48.00719 18.89067 31906 ft 470 kts 286°
2026-05-04 21:30 48.01602 18.84459 32534 ft 465 kts 290°
2026-05-04 21:31 48.05112 18.76525 33520 ft 459 kts 315°
2026-05-04 21:31 48.07403 18.73105 33964 ft 460 kts 315°
2026-05-04 21:31 48.09615 18.69754 34403 ft 459 kts 315°
2026-05-04 21:32 48.11839 18.66338 34849 ft 457 kts 314°
2026-05-04 21:32 48.14044 18.62914 35272 ft 457 kts 314°
2026-05-04 21:32 48.16242 18.59475 35685 ft 456 kts 314°
2026-05-04 21:32 48.18426 18.56040 36078 ft 456 kts 313°
2026-05-04 21:33 48.20611 18.52596 36494 ft 455 kts 313°
2026-05-04 21:33 48.22793 18.49150 36889 ft 454 kts 313°
2026-05-04 21:33 48.24959 18.45725 37274 ft 453 kts 313°
2026-05-04 21:33 48.27137 18.42279 37670 ft 453 kts 313°
2026-05-04 21:34 48.29303 18.38849 37977 ft 454 kts 313°
2026-05-04 21:34 48.33668 18.31921 38018 ft 457 kts 313°
2026-05-04 21:35 48.37983 18.25056 38010 ft 451 kts 313°
2026-05-04 21:35 48.42284 18.18197 38007 ft 450 kts 313°
2026-05-04 21:36 48.46577 18.11329 38008 ft 450 kts 312°
2026-05-04 21:36 48.50866 18.04451 38004 ft 451 kts 312°
2026-05-04 21:37 48.55160 17.97547 37995 ft 452 kts 312°
2026-05-04 21:37 48.59460 17.90614 37997 ft 452 kts 312°
2026-05-04 21:38 48.63760 17.83664 37997 ft 453 kts 312°
2026-05-04 21:38 48.68064 17.76686 37994 ft 454 kts 312°
2026-05-04 21:39 48.72362 17.69701 37996 ft 454 kts 312°
2026-05-04 21:39 48.76661 17.62695 37992 ft 454 kts 311°
2026-05-04 21:40 48.80964 17.55665 37993 ft 454 kts 311°
2026-05-04 21:40 48.85359 17.48772 37983 ft 455 kts 314°
2026-05-04 21:41 48.89928 17.42127 37983 ft 455 kts 315°
2026-05-04 21:41 48.94486 17.35426 37975 ft 455 kts 314°
2026-05-04 21:42 48.99004 17.28687 37968 ft 455 kts 314°
2026-05-04 21:42 49.03497 17.22000 37968 ft 455 kts 315°
2026-05-04 21:43 49.08116 17.15404 37968 ft 455 kts 315°
2026-05-04 21:43 49.12759 17.08833 37966 ft 455 kts 315°
2026-05-04 21:44 49.17390 17.02234 37971 ft 455 kts 315°
2026-05-04 21:44 49.21999 16.95621 37968 ft 454 kts 315°
2026-05-04 21:45 49.26600 16.88996 37969 ft 454 kts 315°
2026-05-04 21:45 49.31199 16.82355 37974 ft 454 kts 315°
2026-05-04 21:46 49.35767 16.75741 37964 ft 454 kts 315°
2026-05-04 21:46 49.40351 16.69087 37966 ft 454 kts 315°
2026-05-04 21:47 49.44949 16.62395 37972 ft 454 kts 314°
2026-05-04 21:47 49.49534 16.55704 37966 ft 454 kts 314°
2026-05-04 21:48 49.54108 16.49011 37970 ft 454 kts 314°
2026-05-04 21:48 49.58681 16.42299 37965 ft 454 kts 314°
2026-05-04 21:49 49.63252 16.35574 37963 ft 454 kts 314°
2026-05-04 21:49 49.67816 16.28841 37967 ft 454 kts 314°
2026-05-04 21:50 49.72382 16.22086 37952 ft 454 kts 314°
2026-05-04 21:50 49.76941 16.15323 37952 ft 454 kts 314°
2026-05-04 21:51 49.81497 16.08546 37958 ft 454 kts 314°
2026-05-04 21:51 49.86045 16.01761 37943 ft 454 kts 314°
2026-05-04 21:52 49.90138 15.95640 37946 ft 454 kts 314°
2026-05-04 21:52 49.94688 15.88818 37943 ft 455 kts 313°
2026-05-04 21:53 49.99227 15.81992 37939 ft 455 kts 313°
2026-05-04 21:53 50.03759 15.75158 37939 ft 454 kts 313°
2026-05-04 21:54 50.08291 15.68306 37943 ft 455 kts 313°
2026-05-04 21:54 50.12831 15.61421 37944 ft 455 kts 313°
2026-05-04 21:55 50.17362 15.54533 37938 ft 455 kts 313°
2026-05-04 21:55 50.21887 15.47633 37943 ft 455 kts 313°
2026-05-04 21:56 50.26412 15.40714 37942 ft 455 kts 313°
2026-05-04 21:56 50.30926 15.33794 37947 ft 455 kts 313°
2026-05-04 21:57 50.35445 15.26844 37946 ft 455 kts 313°
2026-05-04 21:57 50.39957 15.19887 37945 ft 455 kts 313°
2026-05-04 21:58 50.44468 15.12911 37956 ft 455 kts 312°
2026-05-04 21:58 50.48970 15.05929 37955 ft 455 kts 312°
2026-05-04 21:59 50.53475 14.98924 37956 ft 455 kts 312°
2026-05-04 21:59 50.57969 14.91914 37959 ft 455 kts 312°
2026-05-04 22:00 50.62463 14.84886 37971 ft 455 kts 312°
2026-05-04 22:00 50.66954 14.77842 37950 ft 455 kts 312°
2026-05-04 22:01 50.71438 14.70789 37951 ft 455 kts 312°
2026-05-04 22:01 50.75928 14.63704 37895 ft 458 kts 313°
2026-05-04 22:02 50.80462 14.56528 37950 ft 465 kts 313°
2026-05-04 22:02 50.84978 14.49367 37950 ft 458 kts 312°
2026-05-04 22:03 50.89443 14.42262 37970 ft 455 kts 311°
2026-05-04 22:03 50.93960 14.35225 37962 ft 458 kts 315°
2026-05-04 22:04 50.98821 14.28555 37962 ft 460 kts 316°
2026-05-04 22:04 51.03694 14.21926 37961 ft 461 kts 316°
2026-05-04 22:05 51.08498 14.15287 37961 ft 462 kts 316°
2026-05-04 22:05 51.13353 14.08576 37947 ft 462 kts 316°
2026-05-04 22:06 51.18201 14.01863 37952 ft 462 kts 316°
2026-05-04 22:06 51.23041 13.95136 37942 ft 461 kts 315°
2026-05-04 22:07 51.27867 13.88413 37946 ft 460 kts 315°
2026-05-04 22:07 51.32681 13.81679 37944 ft 459 kts 315°
2026-05-04 22:08 51.37485 13.74935 37947 ft 458 kts 315°
2026-05-04 22:08 51.42266 13.68203 37938 ft 458 kts 315°
2026-05-04 22:09 51.47049 13.61449 37943 ft 458 kts 315°
2026-05-04 22:09 51.51005 13.55849 37940 ft 458 kts 315°
2026-05-04 22:10 51.55777 13.49076 37940 ft 457 kts 315°
2026-05-04 22:10 51.60547 13.42284 37945 ft 458 kts 315°
2026-05-04 22:11 51.65318 13.35472 37947 ft 458 kts 315°
2026-05-04 22:11 51.70081 13.28651 37944 ft 459 kts 315°
2026-05-04 22:12 51.74851 13.21799 37940 ft 459 kts 315°
2026-05-04 22:12 51.80397 13.13810 37938 ft 459 kts 315°
2026-05-04 22:13 51.84381 13.08039 37944 ft 459 kts 314°
2026-05-04 22:13 51.89140 13.01123 37943 ft 460 kts 314°
2026-05-04 22:14 51.93902 12.94189 37942 ft 460 kts 314°
2026-05-04 22:14 51.98652 12.87265 37957 ft 460 kts 314°
2026-05-04 22:15 52.03407 12.80314 37964 ft 460 kts 314°
2026-05-04 22:15 52.08125 12.73393 37949 ft 460 kts 314°
2026-05-04 22:16 52.12910 12.66354 37949 ft 460 kts 314°
2026-05-04 22:16 52.17617 12.59403 37960 ft 460 kts 314°
2026-05-04 22:17 52.22350 12.52390 37960 ft 460 kts 314°
2026-05-04 22:17 52.27083 12.45354 37960 ft 460 kts 314°
2026-05-04 22:18 52.31812 12.38304 37962 ft 460 kts 314°
2026-05-04 22:18 52.36542 12.31231 37965 ft 461 kts 314°
2026-05-04 22:19 52.41271 12.24137 37968 ft 461 kts 314°
2026-05-04 22:19 52.46016 12.16995 37202 ft 471 kts 313°
2026-05-04 22:19 52.48424 12.13363 36540 ft 469 kts 313°
2026-05-04 22:20 52.50817 12.09753 35949 ft 464 kts 313°
2026-05-04 22:20 52.53175 12.06191 35425 ft 458 kts 313°
2026-05-04 22:20 52.55509 12.02657 34887 ft 454 kts 312°
2026-05-04 22:20 52.57814 11.99160 34371 ft 449 kts 312°
2026-05-04 22:21 52.60077 11.95721 33847 ft 446 kts 312°
2026-05-04 22:21 52.62368 11.92235 33257 ft 442 kts 312°
2026-05-04 22:21 52.64653 11.88959 32709 ft 440 kts 316°
2026-05-04 22:21 52.67068 11.85882 32198 ft 437 kts 317°
2026-05-04 22:22 52.69456 11.82908 31685 ft 433 kts 317°
2026-05-04 22:22 52.71872 11.79909 31200 ft 428 kts 317°
2026-05-04 22:22 52.74232 11.76963 30701 ft 424 kts 317°
2026-05-04 22:22 52.76568 11.74027 30214 ft 420 kts 317°
2026-05-04 22:23 52.78875 11.71111 29697 ft 416 kts 317°
2026-05-04 22:23 52.81168 11.68202 29142 ft 412 kts 317°
2026-05-04 22:23 52.83427 11.65331 28658 ft 407 kts 317°
2026-05-04 22:23 52.85661 11.62485 28173 ft 403 kts 317°
2026-05-04 22:24 52.87869 11.59671 27680 ft 399 kts 317°
2026-05-04 22:24 52.90063 11.56872 27199 ft 396 kts 317°
2026-05-04 22:24 52.92231 11.54103 26727 ft 392 kts 317°
2026-05-04 22:24 52.94389 11.51341 26259 ft 389 kts 317°
2026-05-04 22:25 52.96517 11.48607 25784 ft 387 kts 316°
2026-05-04 22:25 52.98640 11.45872 25332 ft 384 kts 317°
2026-05-04 22:25 53.00747 11.43156 24878 ft 382 kts 317°
2026-05-04 22:25 53.02841 11.40453 24422 ft 381 kts 317°
2026-05-04 22:26 53.04927 11.37759 23979 ft 379 kts 317°
2026-05-04 22:26 53.07004 11.35074 23509 ft 378 kts 317°
2026-05-04 22:26 53.09081 11.32387 22996 ft 377 kts 317°
2026-05-04 22:26 53.11137 11.29725 22509 ft 374 kts 317°
2026-05-04 22:27 53.13218 11.27126 22047 ft 373 kts 319°
2026-05-04 22:27 53.15316 11.24677 21590 ft 371 kts 320°
2026-05-04 22:27 53.17436 11.22257 21146 ft 369 kts 321°
2026-05-04 22:27 53.19580 11.19815 20710 ft 366 kts 321°
2026-05-04 22:28 53.21641 11.17456 20264 ft 364 kts 321°
2026-05-04 22:28 53.23730 11.15053 19824 ft 362 kts 320°
2026-05-04 22:28 53.25795 11.12667 19398 ft 361 kts 320°
2026-05-04 22:28 53.27858 11.10274 18952 ft 360 kts 320°
2026-05-04 22:29 53.29924 11.07874 18514 ft 360 kts 321°
2026-05-04 22:29 53.31973 11.05489 18039 ft 359 kts 321°
2026-05-04 22:29 53.34025 11.03098 17545 ft 358 kts 321°
2026-05-04 22:29 53.36073 11.00710 17082 ft 357 kts 321°
2026-05-04 22:30 53.38099 10.98344 16627 ft 355 kts 321°
2026-05-04 22:30 53.40125 10.95977 16187 ft 354 kts 321°
2026-05-04 22:30 53.42139 10.93621 15749 ft 352 kts 321°
2026-05-04 22:30 53.44144 10.91271 15300 ft 351 kts 321°
2026-05-04 22:31 53.46143 10.88931 14873 ft 350 kts 321°
2026-05-04 22:31 53.48102 10.86639 14443 ft 349 kts 321°
2026-05-04 22:31 53.50098 10.84302 13981 ft 348 kts 321°
2026-05-04 22:31 53.52078 10.81980 13527 ft 347 kts 321°
2026-05-04 22:32 53.54050 10.79665 13059 ft 345 kts 321°
2026-05-04 22:32 53.56015 10.77356 12604 ft 343 kts 321°
2026-05-04 22:32 53.57968 10.75058 12158 ft 341 kts 321°
2026-05-04 22:32 53.59898 10.72779 11736 ft 336 kts 319°
2026-05-04 22:33 53.61475 10.70042 11304 ft 320 kts 297°
2026-05-04 22:33 53.62238 10.66623 10960 ft 309 kts 276°
2026-05-04 22:33 53.62299 10.63075 10768 ft 297 kts 263°
2026-05-04 22:33 53.61846 10.59740 10552 ft 288 kts 246°
2026-05-04 22:34 53.60950 10.56793 10383 ft 279 kts 242°
2026-05-04 22:34 53.60047 10.53935 10193 ft 272 kts 242°
2026-05-04 22:34 53.59184 10.51160 10013 ft 265 kts 243°
2026-05-04 22:34 53.58346 10.48440 9839 ft 258 kts 243°
2026-05-04 22:35 53.57774 10.45692 9635 ft 246 kts 264°
2026-05-04 22:35 53.57992 10.42878 9495 ft 241 kts 285°
2026-05-04 22:35 53.58697 10.40347 9341 ft 240 kts 301°
2026-05-04 22:35 53.59861 10.38308 9198 ft 242 kts 315°
2026-05-04 22:36 53.61171 10.36520 9030 ft 244 kts 316°
2026-05-04 22:36 53.62501 10.34721 8899 ft 245 kts 316°
2026-05-04 22:36 53.63805 10.32930 8732 ft 245 kts 316°
2026-05-04 22:36 53.65230 10.31304 8541 ft 248 kts 335°
2026-05-04 22:37 53.66959 10.30977 8391 ft 257 kts
2026-05-04 22:37 53.68594 10.32164 8226 ft 265 kts 37°
2026-05-04 22:37 53.69842 10.34442 8073 ft 265 kts 49°
2026-05-04 22:37 53.71018 10.36864 7890 ft 270 kts 49°
2026-05-04 22:38 53.72211 10.39336 7724 ft 271 kts 49°
2026-05-04 22:38 53.73392 10.41760 7534 ft 270 kts 49°
2026-05-04 22:38 53.74604 10.44234 7366 ft 269 kts 49°
2026-05-04 22:38 53.75792 10.46655 7182 ft 268 kts 49°
2026-05-04 22:39 53.76967 10.49050 7022 ft 267 kts 48°
2026-05-04 22:39 53.78161 10.51484 6840 ft 265 kts 48°
2026-05-04 22:39 53.79323 10.53854 6668 ft 264 kts 48°
2026-05-04 22:39 53.80492 10.56240 6507 ft 263 kts 48°
2026-05-04 22:40 53.81661 10.58618 6331 ft 260 kts 46°
2026-05-04 22:40 53.83068 10.60375 6132 ft 249 kts 14°
2026-05-04 22:40 53.84747 10.60668 6011 ft 242 kts 345°
2026-05-04 22:40 53.86324 10.59794 5844 ft 237 kts 324°
2026-05-04 22:41 53.87650 10.58189 5710 ft 232 kts 315°
2026-05-04 22:41 53.88684 10.56209 5521 ft 221 kts 290°
2026-05-04 22:41 53.88974 10.53732 5403 ft 213 kts 265°
2026-05-04 22:41 53.88706 10.51285 5273 ft 211 kts 249°
2026-05-04 22:42 53.87909 10.49223 5123 ft 210 kts 231°
2026-05-04 22:42 53.86952 10.47316 5005 ft 215 kts 232°
2026-05-04 22:42 53.85981 10.45355 4854 ft 217 kts 232°
2026-05-04 22:42 53.85014 10.43404 4713 ft 217 kts 232°
2026-05-04 22:43 53.84051 10.41456 4552 ft 216 kts 232°
2026-05-04 22:43 53.83085 10.39499 4406 ft 214 kts 232°
2026-05-04 22:43 53.82133 10.37570 4275 ft 213 kts 232°
2026-05-04 22:43 53.81182 10.35651 4118 ft 211 kts 232°
2026-05-04 22:44 53.80234 10.33753 4069 ft 210 kts 232°
2026-05-04 22:44 53.79292 10.31870 4018 ft 209 kts 232°
2026-05-04 22:44 53.78375 10.30039 3966 ft 196 kts 232°